Weather in Izmaylovo

Russia / Ulyanovsk Oblast     53°43′15″N   47°14′41″E
temp.,
°C
wind,
m/s
gust,
m/s
humid.,
%
clouds,
%
prec.,
mm/h
press.,
hPa
HPBL,
m
12 may, wed
wed1201:00+11n269190 0.1 1026142
04:00+11ne249492 0.1 102587
07:00+14e3118092 0.0 1025399
10:00+14e41283100 0.1 1025739
13:00+16ese51268100 0.1 1026859
16:00+13ese41192100 1.9 1026427
19:00+14e398675 0.6 1025257
22:00+14ese3118341 0.6 1025294
13 may, thu
thu1301:00+12ese268925 0.0 102596
04:00+11e368575 0.0 102596
07:00+13e3117430 0.0 1024285
10:00+17ese5125973 0.0 1023627
13:00+20se81158100 0.1 10231062
16:00+21se71458100 0.1 10211375
19:00+20sse6135063 0.0 1021840
22:00+16se4156890 0.4 1021412
14 may, fri
fri1401:00+16se4146599 0.0 1021364
04:00+14sse237026 0.0 102169
07:00+15sse257169 0.0 1022160
10:00+21s4752100 0.0 1021518
13:00+25s5739100 0.0 10211064
16:00+26s6103890 0.0 10211495
19:00+23sse41053100 0.0 1020413
22:00+19sse413585 0.0 1020322
15 may, sat
sat1501:00+17sse4125524 0.0 1020247
04:00+15sse396011 0.0 1020159
07:00+17s311595 0.0 1020250
10:00+23s5103719 0.0 1020529
13:00+26s69285 0.0 10201202
16:00+27s610315 0.0 10191511
19:00+24sse410435 0.0 1018327
22:00+18sse396099 0.0 1018137
16 may, sun
sun1601:00+17sse395639 0.0 1018144
04:00+15sse395916 0.0 1017138
07:00+18s3126186 0.0 1017269
10:00+24s51042100 0.0 1017619
13:00+27ssw6932100 0.0 10172087
16:00+27ssw573372 0.0 10161883
19:00+24ssw3751100 0.0 1016240
22:00+19ssw3365100 0.0 101739